Munich Airport

Airport
ICAO code: 
EDDM
IATA Code: 
MUC
Summary
ICAO Region: 
EUR
Territory: 
Location: 
Freisig,
Serving: 
Munich
Elevation: 
1487 ft
Coordinates: 
Aerial View: 
48° 21' 14.325" N, 11° 46' 53.614" E
Metar
Observation
EDDM 161020Z 28007KT 8000 SCT006 01/M01 Q1025 NOSIG
Station
Munchen
Date/Time
2022-01-16 10:20:00
Wind direction
280°
Wind speed
07 kts
Lowest cloud amount
scattered clouds
Temperature
1°C
Dew point
-1°C
Humidity
86%
QNH
1025 hPa
Weather condition
n/a

Description

International airport serving Munich in Southern Germany.

Climatology

Humid Continental climate (Köppen climate classification Dfb) - Variable weather patterns and a large seasonal temperature variance. Summers are often warm and humid with frequent thunderstorms and winters can be very cold with frequent snowfall and persistent snow cover.

Munich's altitude and proximity to the northern edge of the Alps mean that precipitation is high. Rain storms often come violently and unexpectedly. The range of temperature between day and night or summer and winter can be extreme. A warm downwind from the Alps (a föhn wind) can change the temperatures completely within a few hours, even in the winter.

Runways

Designator Length Width Surface Rops
08L/26R 4000 60 CON Yes/Yes
08R/26L 4000 60 CON Yes/Yes
Airport map: 
Aerial View: 

SKYbrary Partners:

Safety knowledge contributed by: